Retour au catalogue

NOAA 16 DEB

ActifSSO
NORAD 41302·DEBRIS·🇺🇸 United States

Lancé Sep 21, 2000 depuis Vandenberg Space Force Base

Loading…

Prochains Passages (prochaines 24 heures)

TLE

FraisSource: Space-Track

Époque: Sep 13, 2026, 09:27 UTC

1 41302U 00055HE  26256.39408138  .00002332  00000-0  99220-3 0  9992
2 41302  98.7080 317.8653 0017647 308.5556  51.4042 14.26100952551584

Suivez NOAA 16 DEB en temps réel avec AllMySat

Download on the App Store